Regional Weather Roundup
Issued by NWS

Home | Current Version | Previous Version | Text Only | Print | Product List | Glossary Off
Versions: 1 2 3 4 5 6 7 8 9 10 11 12 13 14 15 16 17 18 19 20 21 22 23 24 25 26 27 28 29 30 31 32 33 34 35 36 37 38 39 40 41 42 43 44 45 46 47 48 49 50

000
ASUS43 KOAX 041902
RWRNE

WEATHER ROUNDUP FOR NEBRASKA
NATIONAL WEATHER SERVICE OMAHA NE
200 PM CDT TUE AUG 04 2015

NOTES: SATELLITE DATA IS BEING USED TO AUGMENT CLOUD COVER ABOVE
       12000 FEET.
       "FAIR" INDICATES FEW OR NO CLOUDS BELOW 12,000 FEET WITH NO
       SIGNIFICANT WEATHER AND/OR OBSTRUCTIONS TO VISIBILITY.

  * THESE STATIONS DO NOT REPORT WEATHER SUCH AS RAIN...SNOW OR FOG.

NEZ001>004-019>022-054>056-042000-
NEBRASKA PANHANDLE

CITY           SKY/WX    TMP DP  RH WIND       PRES   REMARKS
SCOTTSBLUFF    PTSUNNY   79  56  45 SE12G17   29.99F
ALLIANCE       CLOUDY    70  62  76 SE18G26   30.03R
CHADRON        PTSUNNY   82  60  47 S21G30    29.95S
KIMBALL        CLOUDY    73  51  45 N5        30.05R
SIDNEY         CLOUDY    72  58  61 E13       30.04R
$$

NEZ057>060-069>072-079>082-042000-
SOUTHWEST NEBRASKA

CITY           SKY/WX    TMP DP  RH WIND       PRES   REMARKS
NORTH PLATTE   TSTM      67  65  93 N7        30.01R
IMPERIAL       CLOUDY    61  58  90 NE10      30.01F
LEXINGTON      LGT RAIN  72  65  80 E9        29.97S
MCCOOK         CLOUDY    69  67  93 NE7       29.95R THUNDER
$$

NEZ005>010-023>029-035>040-094-042000-
NORTH CENTRAL NEBRASKA

CITY           SKY/WX    TMP DP  RH WIND       PRES   REMARKS
BROKEN BOW     CLOUDY    78  60  53 SE12G23   29.96F
O`NEILL        MOSUNNY   76  65  68 E9        29.98S
ORD            PTSUNNY   81  59  47 SE17G26   29.91F
$$

NEZ041-046>049-061>064-073>077-083>087-042000-
SOUTH CENTRAL NEBRASKA

CITY           SKY/WX    TMP DP  RH WIND       PRES   REMARKS
GRAND ISLAND   CLOUDY    80  67  64 SE16G24   29.95F
AURORA         PTSUNNY   79  68  69 SE16      29.94F
HASTINGS       CLOUDY    81  67  62 E20G26    29.94F
KEARNEY *      CLOUDY    79  66  65 SE14      29.95F
$$

NEZ011>018-030>034-042>045-042000-
NORTHEAST NEBRASKA

CITY           SKY/WX    TMP DP  RH WIND       PRES   REMARKS
NORFOLK        CLOUDY    72  64  76 E9        29.96R
BLAIR          CLOUDY    69  63  79 SE9       29.95F
COLUMBUS *     CLOUDY    73  63  68 S8        29.92F
TEKAMAH        CLOUDY    73  64  73 S7        29.94F
$$

NEZ050>053-065>068-078-088>093-042000-
SOUTHEAST NEBRASKA

CITY           SKY/WX    TMP DP  RH WIND       PRES   REMARKS
LINCOLN        PTSUNNY   83  67  58 S17G23    29.95F
OMAHA EPPLEY   CLOUDY    73  65  75 SE10      29.95S
FALLS CITY     PTSUNNY   80  71  74 SE10      29.96F
$$

NEZ044-045-051>053-067-042000-
OMAHA AREA

CITY           SKY/WX    TMP DP  RH WIND       PRES   REMARKS
OMAHA EPPLEY   CLOUDY    73  65  75 SE10      29.95S
BLAIR          CLOUDY    69  63  79 SE9       29.95F
OFFUTT AFB     CLOUDY    74  67  79 SE12      29.94F
$$


USA.gov is the U.S. government's official web portal to all federal, state and local government web resources and services.